Location: High Point State Park
(41.2941°N, 74.6906°W)
Time: 15:13:25
(UTC-04:00)

Hubble Space Telescope - Visible Passes

Search period start: 03 September 2015 00:00
Search period end: 13 September 2015 00:00
Orbit: 541 x 545 km, 28.5° (Epoch: 02 September)

Date Brightness Start Highest point End Pass type
(mag) Time Alt. Az. Time Alt. Az. Time Alt. Az.
04 Sep 3.3 05:56:29 10° S 05:57:22 11° SSE 05:58:17 10° SSE visible
05 Sep 3.2 05:46:46 10° SSW 05:48:16 12° S 05:49:50 10° SSE visible
06 Sep 3.1 05:37:20 10° SSW 05:39:11 13° S 05:41:05 10° SE visible
07 Sep 3.0 05:28:03 10° SSW 05:30:07 13° S 05:32:10 10° SE visible
08 Sep 2.9 05:19:37 12° SSW 05:21:01 14° S 05:23:10 10° SSE visible
09 Sep 2.8 05:11:14 13° SSW 05:11:57 14° S 05:14:04 10° SSE visible
10 Sep 2.9 05:02:53 13° S 05:02:53 13° S 05:04:54 10° SSE visible
11 Sep 3.1 04:54:35 12° S 04:54:35 12° S 04:55:37 10° SSE visible
